Location: Franzen
(48.6167°N, 15.3833°E)
Time: 08:12:19
(UTC+00:00)

Cosmos 1709 Rocket - Pass Details

Date: 01 August 2021
Orbit: 947 x 1002 km, 82.9° (Epoch: 18 September)

Event Time Altitude Azimuth Distance (km) Brightness Sun altitude
Exits shadow 00:50:07 17° 256° (WSW) 2,310 5.6 -19.4°
Maximum altitude 00:53:21 24° 296° (WNW) 1,938 5.5 -19.1°
Drops below altitude 10° 00:58:26 10° 348° (NNW) 2,786 7.1 -18.7°
Sets 01:01:32 0° 3° (N) 3,741 8.2 -18.5°
